VOI435 MMUN-MMOX

Flight info

Callsign VOI435
Flight time 1h 38m
Altitude 38000
Route UDGUV2A UDGUV UJ84 CZA DCT OMATO UJ16 OAX
Aircraft A20N/M-SDE2E3FGHIRWXY/LB1

Departure

Time 2026-05-06 21:17
Airport Cancún International Airport (MMUN)

Arrival

Time 2026-05-06 22:55
Airport Xoxocotlán International Airport (MMOX)
Time Latitude Longitude Altitude Speed Heading
2026-05-06 20:13 21.03732 -86.87216 32 ft 0 kts 34°
2026-05-06 21:06 21.03728 -86.87219 32 ft 2 kts 34°
2026-05-06 21:06 21.03715 -86.87228 31 ft 2 kts 34°
2026-05-06 21:07 21.03703 -86.87238 30 ft 2 kts 34°
2026-05-06 21:07 21.03690 -86.87247 30 ft 2 kts 33°
2026-05-06 21:07 21.03676 -86.87251 30 ft 2 kts 359°
2026-05-06 21:07 21.03661 -86.87248 30 ft 2 kts 334°
2026-05-06 21:08 21.03649 -86.87239 30 ft 2 kts 308°
2026-05-06 21:08 21.03643 -86.87229 30 ft 0 kts 301°
2026-05-06 21:08 21.03642 -86.87227 30 ft 0 kts 302°
2026-05-06 21:08 21.03642 -86.87228 30 ft 0 kts 302°
2026-05-06 21:11 21.03652 -86.87244 30 ft 4 kts 303°
2026-05-06 21:11 21.03671 -86.87278 29 ft 6 kts 292°
2026-05-06 21:11 21.03658 -86.87329 29 ft 7 kts 237°
2026-05-06 21:11 21.03660 -86.87392 28 ft 12 kts 297°
2026-05-06 21:12 21.03717 -86.87485 27 ft 16 kts 303°
2026-05-06 21:12 21.03782 -86.87592 27 ft 17 kts 303°
2026-05-06 21:12 21.03851 -86.87703 26 ft 18 kts 303°
2026-05-06 21:12 21.03922 -86.87817 27 ft 18 kts 303°
2026-05-06 21:13 21.03993 -86.87929 27 ft 18 kts 303°
2026-05-06 21:13 21.04062 -86.88039 28 ft 17 kts 303°
2026-05-06 21:13 21.04130 -86.88148 30 ft 16 kts 304°
2026-05-06 21:13 21.04194 -86.88248 32 ft 16 kts 303°
2026-05-06 21:14 21.04265 -86.88361 33 ft 20 kts 303°
2026-05-06 21:14 21.04343 -86.88487 36 ft 19 kts 304°
2026-05-06 21:14 21.04413 -86.88597 37 ft 17 kts 304°
2026-05-06 21:14 21.04485 -86.88711 38 ft 20 kts 304°
2026-05-06 21:15 21.04565 -86.88840 39 ft 19 kts 304°
2026-05-06 21:15 21.04628 -86.88942 40 ft 13 kts 300°
2026-05-06 21:15 21.04617 -86.89022 40 ft 10 kts 222°
2026-05-06 21:15 21.04562 -86.89064 40 ft 8 kts 210°
2026-05-06 21:16 21.04506 -86.89056 39 ft 10 kts 129°
2026-05-06 21:16 21.04392 -86.88874 38 ft 60 kts 123°
2026-05-06 21:16 21.04039 -86.88308 31 ft 118 kts 123°
2026-05-06 21:16 21.03489 -86.87428 31 ft 163 kts 123°
2026-05-06 21:17 21.02859 -86.86368 423 ft 172 kts 123°
2026-05-06 21:17 21.02219 -86.85271 1035 ft 174 kts 122°
2026-05-06 21:17 21.01553 -86.84220 1700 ft 174 kts 131°
2026-05-06 21:17 21.00502 -86.83567 2219 ft 186 kts 167°
2026-05-06 21:18 20.99163 -86.83782 2566 ft 213 kts 203°
2026-05-06 21:18 20.97920 -86.84869 2881 ft 243 kts 221°
2026-05-06 21:18 20.96650 -86.86189 2958 ft 264 kts 218°
2026-05-06 21:18 20.95209 -86.87455 2960 ft 265 kts 214°
2026-05-06 21:19 20.93862 -86.88841 2944 ft 271 kts 236°
2026-05-06 21:19 20.93260 -86.90749 2959 ft 277 kts 259°
2026-05-06 21:19 20.93025 -86.92803 2957 ft 277 kts 261°
2026-05-06 21:19 20.92785 -86.94859 2955 ft 278 kts 260°
2026-05-06 21:20 20.92517 -86.96918 2950 ft 278 kts 259°
2026-05-06 21:20 20.92329 -86.98286 2947 ft 278 kts 258°
2026-05-06 21:20 20.91937 -87.01035 3079 ft 286 kts 258°
2026-05-06 21:20 20.91629 -87.03158 3881 ft 288 kts 259°
2026-05-06 21:21 20.91329 -87.05230 4833 ft 286 kts 259°
2026-05-06 21:21 20.91023 -87.07342 5675 ft 288 kts 259°
2026-05-06 21:21 20.90714 -87.09474 6460 ft 292 kts 259°
2026-05-06 21:21 20.90401 -87.11616 7182 ft 297 kts 259°
2026-05-06 21:22 20.90080 -87.13822 7667 ft 300 kts 260°
2026-05-06 21:22 20.89758 -87.16040 7902 ft 302 kts 261°
2026-05-06 21:22 20.89439 -87.18245 7932 ft 302 kts 261°
2026-05-06 21:22 20.89114 -87.20486 7928 ft 302 kts 261°
2026-05-06 21:23 20.88791 -87.22715 7924 ft 302 kts 260°
2026-05-06 21:23 20.88470 -87.24928 7913 ft 302 kts 260°
2026-05-06 21:23 20.88144 -87.27159 7921 ft 302 kts 260°
2026-05-06 21:23 20.87821 -87.29369 7924 ft 302 kts 260°
2026-05-06 21:24 20.87493 -87.31608 7924 ft 303 kts 261°
2026-05-06 21:24 20.87165 -87.33849 7922 ft 302 kts 261°
2026-05-06 21:24 20.86843 -87.36047 7915 ft 303 kts 260°
2026-05-06 21:24 20.86510 -87.38310 8178 ft 311 kts 261°
2026-05-06 21:25 20.86171 -87.40603 8960 ft 311 kts 261°
2026-05-06 21:25 20.85836 -87.42864 9671 ft 313 kts 261°
2026-05-06 21:25 20.85495 -87.45187 10300 ft 318 kts 262°
2026-05-06 21:25 20.85147 -87.47558 10635 ft 333 kts 262°
2026-05-06 21:26 20.84779 -87.50057 11052 ft 344 kts 262°
2026-05-06 21:26 20.84402 -87.52608 11697 ft 348 kts 262°
2026-05-06 21:26 20.84023 -87.55171 12334 ft 350 kts 262°
2026-05-06 21:26 20.83644 -87.57729 12947 ft 353 kts 262°
2026-05-06 21:27 20.83257 -87.60340 13560 ft 356 kts 262°
2026-05-06 21:27 20.82867 -87.62977 14161 ft 360 kts 262°
2026-05-06 21:27 20.82478 -87.65601 14751 ft 363 kts 262°
2026-05-06 21:27 20.82078 -87.68293 15339 ft 366 kts 262°
2026-05-06 21:28 20.81679 -87.70966 15917 ft 369 kts 262°
2026-05-06 21:28 20.81271 -87.73702 16493 ft 372 kts 262°
2026-05-06 21:28 20.80852 -87.76457 17048 ft 376 kts 261°
2026-05-06 21:28 20.80304 -87.79182 17574 ft 380 kts 257°
2026-05-06 21:29 20.79648 -87.81937 18135 ft 383 kts 256°
2026-05-06 21:29 20.78975 -87.84705 18716 ft 384 kts 256°
2026-05-06 21:29 20.78306 -87.87449 19264 ft 387 kts 256°
2026-05-06 21:29 20.77622 -87.90256 19807 ft 389 kts 255°
2026-05-06 21:30 20.76938 -87.93070 20341 ft 391 kts 255°
2026-05-06 21:30 20.76258 -87.95869 20851 ft 394 kts 255°
2026-05-06 21:30 20.75566 -87.98714 21367 ft 396 kts 255°
2026-05-06 21:30 20.74877 -88.01549 21879 ft 398 kts 255°
2026-05-06 21:31 20.74176 -88.04428 22399 ft 400 kts 255°
2026-05-06 21:31 20.73472 -88.07323 22916 ft 402 kts 255°
2026-05-06 21:31 20.72773 -88.10194 23408 ft 404 kts 255°
2026-05-06 21:31 20.72059 -88.13116 23916 ft 406 kts 255°
2026-05-06 21:32 20.71346 -88.16045 24406 ft 407 kts 255°
2026-05-06 21:32 20.69913 -88.21915 25363 ft 410 kts 255°
2026-05-06 21:32 20.69197 -88.24844 25824 ft 412 kts 255°
2026-05-06 21:33 20.68473 -88.27808 26262 ft 414 kts 255°
2026-05-06 21:33 20.67740 -88.30798 26698 ft 416 kts 255°
2026-05-06 21:33 20.67006 -88.33798 27128 ft 418 kts 255°
2026-05-06 21:33 20.66266 -88.36814 27543 ft 420 kts 255°
2026-05-06 21:34 20.65522 -88.39846 27955 ft 421 kts 255°
2026-05-06 21:34 20.64752 -88.42844 28357 ft 423 kts 252°
2026-05-06 21:34 20.63819 -88.45832 28759 ft 424 kts 249°
2026-05-06 21:34 20.62717 -88.48773 29160 ft 425 kts 246°
2026-05-06 21:35 20.61558 -88.51661 29539 ft 427 kts 246°
2026-05-06 21:35 20.60374 -88.54595 29919 ft 429 kts 246°
2026-05-06 21:35 20.59202 -88.57497 30296 ft 431 kts 247°
2026-05-06 21:35 20.58010 -88.60451 30660 ft 433 kts 247°
2026-05-06 21:36 20.56811 -88.63422 31009 ft 435 kts 247°
2026-05-06 21:36 20.55621 -88.66375 31359 ft 436 kts 246°
2026-05-06 21:36 20.54413 -88.69368 31697 ft 438 kts 246°
2026-05-06 21:36 20.53203 -88.72366 32099 ft 438 kts 247°
2026-05-06 21:37 20.52012 -88.75318 32563 ft 436 kts 247°
2026-05-06 21:37 20.50808 -88.78298 33037 ft 434 kts 247°
2026-05-06 21:37 20.49626 -88.81222 33496 ft 432 kts 247°
2026-05-06 21:37 20.48432 -88.84175 33956 ft 430 kts 247°
2026-05-06 21:38 20.47260 -88.87072 34377 ft 428 kts 247°
2026-05-06 21:38 20.46076 -88.89996 34781 ft 427 kts 247°
2026-05-06 21:38 20.44895 -88.92915 35180 ft 425 kts 247°
2026-05-06 21:38 20.43736 -88.95777 35539 ft 423 kts 247°
2026-05-06 21:39 20.42561 -88.98676 35866 ft 423 kts 246°
2026-05-06 21:39 20.41399 -89.01540 36176 ft 422 kts 246°
2026-05-06 21:39 20.40229 -89.04423 36473 ft 421 kts 246°
2026-05-06 21:39 20.39070 -89.07275 36738 ft 421 kts 246°
2026-05-06 21:40 20.37900 -89.10153 36977 ft 421 kts 247°
2026-05-06 21:40 20.36742 -89.13000 37154 ft 422 kts 246°
2026-05-06 21:40 20.35565 -89.15894 37316 ft 424 kts 246°
2026-05-06 21:40 20.34401 -89.18754 37481 ft 425 kts 246°
2026-05-06 21:41 20.33220 -89.21654 37654 ft 425 kts 246°
2026-05-06 21:41 20.32031 -89.24571 37829 ft 426 kts 247°
2026-05-06 21:41 20.29667 -89.30368 37851 ft 427 kts 247°
2026-05-06 21:42 20.27293 -89.36179 37853 ft 428 kts 247°
2026-05-06 21:42 20.24923 -89.41981 37854 ft 427 kts 246°
2026-05-06 21:43 20.22556 -89.47765 37858 ft 427 kts 246°
2026-05-06 21:43 20.20166 -89.53599 37853 ft 428 kts 246°
2026-05-06 21:44 20.17802 -89.59363 37853 ft 428 kts 246°
2026-05-06 21:44 20.15405 -89.65198 37855 ft 427 kts 246°
2026-05-06 21:45 20.13036 -89.70962 37855 ft 427 kts 246°
2026-05-06 21:45 20.10657 -89.76747 37856 ft 427 kts 246°
2026-05-06 21:46 20.08271 -89.82542 37855 ft 428 kts 246°
2026-05-06 21:46 20.05869 -89.88367 37852 ft 428 kts 246°
2026-05-06 21:47 20.03472 -89.94172 37846 ft 429 kts 246°
2026-05-06 21:47 20.01089 -89.99939 37845 ft 429 kts 246°
2026-05-06 21:48 19.98672 -90.05781 37844 ft 429 kts 246°
2026-05-06 21:48 19.96271 -90.11573 37840 ft 428 kts 246°
2026-05-06 21:49 19.93873 -90.17358 37837 ft 427 kts 246°
2026-05-06 21:49 19.91474 -90.23142 37827 ft 428 kts 246°
2026-05-06 21:50 19.89061 -90.28954 37819 ft 429 kts 246°
2026-05-06 21:50 19.86651 -90.34745 37819 ft 429 kts 246°
2026-05-06 21:51 19.84249 -90.40513 37820 ft 428 kts 246°
2026-05-06 21:51 19.81832 -90.46309 37818 ft 428 kts 246°
2026-05-06 21:52 19.79430 -90.52065 37819 ft 427 kts 246°
2026-05-06 21:52 19.77020 -90.57837 37821 ft 427 kts 246°
2026-05-06 21:53 19.74608 -90.63605 37820 ft 428 kts 246°
2026-05-06 21:53 19.72191 -90.69377 37817 ft 428 kts 246°
2026-05-06 21:54 19.69770 -90.75154 37809 ft 429 kts 246°
2026-05-06 21:54 19.67345 -90.80932 37811 ft 429 kts 246°
2026-05-06 21:55 19.64921 -90.86703 37803 ft 428 kts 246°
2026-05-06 21:55 19.62484 -90.92503 37804 ft 427 kts 246°
2026-05-06 21:56 19.60075 -90.98226 37793 ft 428 kts 245°
2026-05-06 21:56 19.57635 -91.04018 37787 ft 427 kts 245°
2026-05-06 21:57 19.55207 -91.09771 37792 ft 427 kts 245°
2026-05-06 21:57 19.52780 -91.15519 37790 ft 428 kts 246°
2026-05-06 21:58 19.50347 -91.21275 37791 ft 428 kts 245°
2026-05-06 21:58 19.47917 -91.27020 37794 ft 428 kts 245°
2026-05-06 21:59 19.45484 -91.32764 37793 ft 427 kts 245°
2026-05-06 21:59 19.43035 -91.38541 37790 ft 427 kts 245°
2026-05-06 22:00 19.40599 -91.44281 37785 ft 428 kts 245°
2026-05-06 22:00 19.38159 -91.50022 37785 ft 428 kts 245°
2026-05-06 22:01 19.35718 -91.55763 37786 ft 428 kts 245°
2026-05-06 22:01 19.33273 -91.61503 37795 ft 428 kts 245°
2026-05-06 22:02 19.30811 -91.67281 37799 ft 428 kts 245°
2026-05-06 22:02 19.28371 -91.73003 37801 ft 427 kts 245°
2026-05-06 22:03 19.25923 -91.78734 37795 ft 427 kts 245°
2026-05-06 22:03 19.23475 -91.84460 37798 ft 427 kts 245°
2026-05-06 22:04 19.21022 -91.90193 37786 ft 428 kts 245°
2026-05-06 22:04 19.18565 -91.95930 37784 ft 428 kts 245°
2026-05-06 22:05 19.16113 -92.01646 37784 ft 427 kts 245°
2026-05-06 22:05 19.13654 -92.07372 37787 ft 428 kts 245°
2026-05-06 22:06 19.11188 -92.13113 37785 ft 429 kts 245°
2026-05-06 22:06 19.08717 -92.18855 37781 ft 429 kts 245°
2026-05-06 22:07 19.06240 -92.24609 37779 ft 430 kts 245°
2026-05-06 22:07 19.03762 -92.30360 37780 ft 430 kts 245°
2026-05-06 22:08 19.01284 -92.36105 37779 ft 429 kts 245°
2026-05-06 22:08 18.98804 -92.41846 37779 ft 429 kts 245°
2026-05-06 22:09 18.96324 -92.47581 37779 ft 429 kts 245°
2026-05-06 22:09 18.93843 -92.53311 37778 ft 429 kts 245°
2026-05-06 22:10 18.91368 -92.59026 37777 ft 428 kts 245°
2026-05-06 22:10 18.88876 -92.64771 37776 ft 429 kts 245°
2026-05-06 22:11 18.86385 -92.70512 37775 ft 430 kts 245°
2026-05-06 22:11 18.83895 -92.76244 37778 ft 429 kts 245°
2026-05-06 22:12 18.81390 -92.82004 37776 ft 429 kts 245°
2026-05-06 22:12 18.78900 -92.87721 37773 ft 428 kts 245°
2026-05-06 22:13 18.76423 -92.93402 37768 ft 428 kts 245°
2026-05-06 22:13 18.73933 -92.99113 37767 ft 428 kts 245°
2026-05-06 22:14 18.71432 -93.04840 37767 ft 429 kts 245°
2026-05-06 22:14 18.68929 -93.10568 37764 ft 429 kts 245°
2026-05-06 22:15 18.66425 -93.16291 37765 ft 429 kts 245°
2026-05-06 22:15 18.63935 -93.21976 37763 ft 430 kts 245°
2026-05-06 22:16 18.61414 -93.27725 37766 ft 430 kts 245°
2026-05-06 22:16 18.58909 -93.33431 37763 ft 429 kts 245°
2026-05-06 22:17 18.56407 -93.39129 37768 ft 429 kts 245°
2026-05-06 22:17 18.53897 -93.44839 37767 ft 429 kts 245°
2026-05-06 22:18 18.51388 -93.50538 37763 ft 430 kts 245°
2026-05-06 22:18 18.48870 -93.56255 37762 ft 430 kts 245°
2026-05-06 22:19 18.46341 -93.61988 37755 ft 431 kts 245°
2026-05-06 22:19 18.43818 -93.67705 37754 ft 430 kts 245°
2026-05-06 22:20 18.41308 -93.73386 37754 ft 430 kts 245°
2026-05-06 22:20 18.38773 -93.79119 37756 ft 429 kts 245°
2026-05-06 22:21 18.36254 -93.84809 37749 ft 429 kts 245°
2026-05-06 22:21 18.33744 -93.90472 37746 ft 430 kts 245°
2026-05-06 22:22 18.31210 -93.96183 37749 ft 431 kts 245°
2026-05-06 22:22 18.28672 -94.01900 37744 ft 431 kts 245°
2026-05-06 22:23 18.26117 -94.07649 37743 ft 431 kts 245°
2026-05-06 22:23 18.23580 -94.13354 37743 ft 431 kts 245°
2026-05-06 22:24 18.21040 -94.19061 37745 ft 430 kts 245°
2026-05-06 22:24 18.18516 -94.24725 37743 ft 430 kts 244°
2026-05-06 22:25 18.15962 -94.30450 37745 ft 430 kts 244°
2026-05-06 22:25 18.13415 -94.36149 37750 ft 431 kts 245°
2026-05-06 22:26 18.10860 -94.41863 37749 ft 432 kts 245°
2026-05-06 22:26 18.08303 -94.47579 37749 ft 431 kts 245°
2026-05-06 22:27 18.05749 -94.53283 37756 ft 431 kts 245°
2026-05-06 22:27 18.03193 -94.58989 37758 ft 431 kts 244°
2026-05-06 22:28 18.00638 -94.64683 37760 ft 432 kts 244°
2026-05-06 22:28 17.98070 -94.70398 37761 ft 432 kts 244°
2026-05-06 22:29 17.95508 -94.76096 37761 ft 431 kts 244°
2026-05-06 22:29 17.92940 -94.81805 37765 ft 431 kts 244°
2026-05-06 22:30 17.90374 -94.87503 37768 ft 431 kts 244°
2026-05-06 22:30 17.87798 -94.93219 37763 ft 431 kts 244°
2026-05-06 22:31 17.85226 -94.98920 37759 ft 432 kts 244°
2026-05-06 22:31 17.82660 -95.04607 37759 ft 432 kts 244°
2026-05-06 22:32 17.80083 -95.10306 37459 ft 432 kts 244°
2026-05-06 22:32 17.78795 -95.13152 37166 ft 429 kts 244°
2026-05-06 22:32 17.77530 -95.15951 36878 ft 426 kts 244°
2026-05-06 22:33 17.76259 -95.18758 36586 ft 423 kts 244°
2026-05-06 22:33 17.75005 -95.21526 36297 ft 423 kts 244°
2026-05-06 22:33 17.73735 -95.24329 35949 ft 424 kts 244°
2026-05-06 22:33 17.72482 -95.27097 35521 ft 425 kts 244°
2026-05-06 22:34 17.71209 -95.29902 34935 ft 426 kts 244°
2026-05-06 22:34 17.69931 -95.32722 34309 ft 426 kts 244°
2026-05-06 22:34 17.68668 -95.35504 33682 ft 427 kts 244°
2026-05-06 22:34 17.67387 -95.38327 33028 ft 427 kts 244°
2026-05-06 22:35 17.66105 -95.41150 32393 ft 428 kts 244°
2026-05-06 22:35 17.64817 -95.43985 31745 ft 430 kts 243°
2026-05-06 22:35 17.63541 -95.46792 31083 ft 432 kts 244°
2026-05-06 22:35 17.62238 -95.49656 30447 ft 433 kts 243°
2026-05-06 22:36 17.60944 -95.52498 30001 ft 429 kts 243°
2026-05-06 22:36 17.59641 -95.55306 29560 ft 425 kts 242°
2026-05-06 22:36 17.58242 -95.58025 29124 ft 421 kts 240°
2026-05-06 22:36 17.56848 -95.60676 28695 ft 417 kts 240°
2026-05-06 22:37 17.55446 -95.63336 28263 ft 414 kts 240°
2026-05-06 22:37 17.54059 -95.65966 27818 ft 412 kts 240°
2026-05-06 22:37 17.52670 -95.68600 27372 ft 409 kts 240°
2026-05-06 22:37 17.51308 -95.71183 26938 ft 407 kts 240°
2026-05-06 22:38 17.49943 -95.73775 26495 ft 404 kts 240°
2026-05-06 22:38 17.48582 -95.76358 26048 ft 402 kts 240°
2026-05-06 22:38 17.47245 -95.78895 25618 ft 400 kts 240°
2026-05-06 22:38 17.45894 -95.81457 25185 ft 398 kts 240°
2026-05-06 22:39 17.44553 -95.84000 24766 ft 396 kts 240°
2026-05-06 22:39 17.43232 -95.86504 24352 ft 394 kts 240°
2026-05-06 22:39 17.41902 -95.89024 23927 ft 392 kts 239°
2026-05-06 22:39 17.40595 -95.91499 23500 ft 390 kts 240°
2026-05-06 22:40 17.39279 -95.93993 23082 ft 388 kts 239°
2026-05-06 22:40 17.37986 -95.96440 22689 ft 386 kts 239°
2026-05-06 22:40 17.36682 -95.98907 22284 ft 384 kts 239°
2026-05-06 22:40 17.35384 -96.01360 21883 ft 382 kts 239°
2026-05-06 22:41 17.32819 -96.06213 21072 ft 379 kts 239°
2026-05-06 22:41 17.31555 -96.08600 20676 ft 377 kts 239°
2026-05-06 22:41 17.30276 -96.11013 20259 ft 376 kts 239°
2026-05-06 22:42 17.29016 -96.13392 19838 ft 375 kts 239°
2026-05-06 22:42 17.27742 -96.15794 19414 ft 374 kts 239°
2026-05-06 22:42 17.26491 -96.18151 18997 ft 373 kts 239°
2026-05-06 22:42 17.25226 -96.20536 18560 ft 372 kts 239°
2026-05-06 22:43 17.23968 -96.22909 18124 ft 371 kts 239°
2026-05-06 22:43 17.22720 -96.25261 17699 ft 370 kts 238°
2026-05-06 22:43 17.21469 -96.27618 17285 ft 369 kts 238°
2026-05-06 22:43 17.20236 -96.29940 16871 ft 368 kts 238°
2026-05-06 22:44 17.18984 -96.32291 16447 ft 366 kts 239°
2026-05-06 22:44 17.17755 -96.34598 16042 ft 365 kts 239°
2026-05-06 22:44 17.16517 -96.36924 15638 ft 362 kts 240°
2026-05-06 22:44 17.15304 -96.39204 15223 ft 361 kts 240°
2026-05-06 22:45 17.14080 -96.41501 14805 ft 358 kts 240°
2026-05-06 22:45 17.12888 -96.43739 14527 ft 351 kts 241°
2026-05-06 22:45 17.11699 -96.45970 14178 ft 346 kts 241°
2026-05-06 22:45 17.10542 -96.48141 13837 ft 341 kts 242°
2026-05-06 22:46 17.09392 -96.50300 13501 ft 336 kts 242°
2026-05-06 22:46 17.08271 -96.52403 13158 ft 331 kts 242°
2026-05-06 22:46 17.07515 -96.53823 12933 ft 327 kts 242°
2026-05-06 22:46 17.06068 -96.56544 12497 ft 321 kts 242°
2026-05-06 22:47 17.04973 -96.58575 12188 ft 316 kts 239°
2026-05-06 22:47 17.03531 -96.60259 11862 ft 312 kts 216°
2026-05-06 22:47 17.01581 -96.61244 11553 ft 307 kts 199°
2026-05-06 22:47 16.99550 -96.61885 11246 ft 303 kts 196°
2026-05-06 22:48 16.97502 -96.62466 10947 ft 299 kts 195°
2026-05-06 22:48 16.95502 -96.63018 10652 ft 296 kts 195°
2026-05-06 22:48 16.93501 -96.63563 10352 ft 292 kts 195°
2026-05-06 22:48 16.91549 -96.64092 10061 ft 289 kts 195°
2026-05-06 22:49 16.89577 -96.64623 9770 ft 288 kts 195°
2026-05-06 22:49 16.87649 -96.65138 9477 ft 284 kts 195°
2026-05-06 22:49 16.85715 -96.65649 9176 ft 281 kts 194°
2026-05-06 22:49 16.83839 -96.66151 8884 ft 277 kts 197°
2026-05-06 22:50 16.82164 -96.67097 8562 ft 272 kts 227°
2026-05-06 22:50 16.81292 -96.68791 8267 ft 267 kts 259°
2026-05-06 22:50 16.81284 -96.70685 7969 ft 257 kts 282°
2026-05-06 22:50 16.81939 -96.72375 7662 ft 244 kts 297°
2026-05-06 22:51 16.82746 -96.73878 7362 ft 234 kts 297°
2026-05-06 22:51 16.83528 -96.75349 7065 ft 225 kts 296°
2026-05-06 22:51 16.84380 -96.76630 6849 ft 213 kts 318°
2026-05-06 22:51 16.85745 -96.77094 6550 ft 204 kts
2026-05-06 22:52 16.87044 -96.76683 6268 ft 190 kts 22°
2026-05-06 22:52 16.88214 -96.76125 5974 ft 178 kts 25°
2026-05-06 22:52 16.89321 -96.75652 5830 ft 165 kts 17°
2026-05-06 22:52 16.90424 -96.75322 5719 ft 164 kts 15°
2026-05-06 22:53 16.91533 -96.75012 5710 ft 164 kts 15°
2026-05-06 22:53 16.92653 -96.74682 5706 ft 165 kts 15°
2026-05-06 22:53 16.93764 -96.74361 5595 ft 165 kts 14°
2026-05-06 22:53 16.94886 -96.74052 5509 ft 165 kts 14°
2026-05-06 22:54 16.95991 -96.73738 5423 ft 164 kts 16°
2026-05-06 22:54 16.97099 -96.73405 5306 ft 165 kts 14°
2026-05-06 22:54 16.97841 -96.73193 5190 ft 164 kts 15°
2026-05-06 22:54 16.99316 -96.72760 5015 ft 158 kts 14°
2026-05-06 22:55 17.00201 -96.72509 5016 ft 93 kts 16°
2026-05-06 22:55 17.00533 -96.72408 5023 ft 4 kts 13°
2026-05-06 22:55 17.00548 -96.72405 5023 ft 7 kts 14°
2026-05-06 22:55 17.00626 -96.72381 5024 ft 14 kts 17°
2026-05-06 22:56 17.00728 -96.72349 5025 ft 15 kts 14°
2026-05-06 22:56 17.00835 -96.72353 5026 ft 15 kts 342°
2026-05-06 22:56 17.00909 -96.72350 5027 ft 9 kts 47°
2026-05-06 22:56 17.00898 -96.72302 5027 ft 8 kts 161°
2026-05-06 22:57 17.00824 -96.72320 5025 ft 14 kts 197°
2026-05-06 22:57 17.00716 -96.72351 5025 ft 15 kts 195°
2026-05-06 22:57 17.00614 -96.72382 5024 ft 14 kts 196°
2026-05-06 22:57 17.00515 -96.72411 5023 ft 15 kts 195°
2026-05-06 22:58 17.00411 -96.72440 5021 ft 15 kts 195°
2026-05-06 22:58 17.00315 -96.72429 5019 ft 14 kts 122°
2026-05-06 22:58 17.00289 -96.72340 5019 ft 11 kts 106°
2026-05-06 22:58 17.00254 -96.72287 5019 ft 8 kts 165°
2026-05-06 22:59 17.00202 -96.72294 5018 ft 6 kts 195°
2026-05-06 22:59 17.00160 -96.72298 5018 ft 5 kts 158°
2026-05-06 22:59 17.00142 -96.72272 5018 ft 3 kts 108°
2026-05-06 22:59 17.00137 -96.72255 5018 ft 0 kts 106°